TimeEST,TemperatureF,Dew PointF,Humidity,Sea Level PressureIn,VisibilityMPH,Wind Direction,Wind SpeedMPH,Gust SpeedMPH,PrecipitationIn,Events,Conditions,WindDirDegrees,DateUTC
12:53 AM,25.0,21.9,88,30.65,7.0,Calm,Calm,-,N/A,,Clear,0,2012-11-18 05:53:00
1:53 AM,26.1,23.0,88,30.65,7.0,Calm,Calm,-,N/A,,Clear,0,2012-11-18 06:53:00
2:53 AM,25.0,21.9,88,30.66,7.0,Calm,Calm,-,N/A,,Clear,0,2012-11-18 07:53:00
3:53 AM,24.1,21.0,88,30.66,7.0,Calm,Calm,-,N/A,,Clear,0,2012-11-18 08:53:00
4:53 AM,24.1,19.9,84,30.67,7.0,Calm,Calm,-,N/A,,Clear,0,2012-11-18 09:53:00
5:53 AM,21.0,18.0,88,30.69,8.0,Calm,Calm,-,N/A,,Clear,0,2012-11-18 10:53:00
6:53 AM,23.0,19.0,85,30.69,7.0,Calm,Calm,-,N/A,,Clear,0,2012-11-18 11:53:00
7:53 AM,25.0,21.9,88,30.69,6.0,Calm,Calm,-,N/A,,Clear,0,2012-11-18 12:53:00
8:53 AM,32.0,26.1,79,30.69,7.0,Calm,Calm,-,N/A,,Clear,0,2012-11-18 13:53:00
9:53 AM,37.9,28.9,70,30.69,9.0,Calm,Calm,-,N/A,,Clear,0,2012-11-18 14:53:00
10:53 AM,42.1,28.0,58,30.68,10.0,Calm,Calm,-,N/A,,Clear,0,2012-11-18 15:53:00
11:53 AM,46.0,28.0,50,30.65,10.0,NNW,3.5,-,N/A,,Clear,330,2012-11-18 16:53:00
12:53 PM,48.9,28.0,44,30.62,10.0,Calm,Calm,-,N/A,,Clear,0,2012-11-18 17:53:00
1:53 PM,48.0,28.9,48,30.61,10.0,Variable,5.8,-,N/A,,Clear,0,2012-11-18 18:53:00
2:53 PM,48.0,28.0,46,30.60,10.0,North,3.5,-,N/A,,Clear,360,2012-11-18 19:53:00
3:53 PM,48.0,28.0,46,30.60,10.0,Calm,Calm,-,N/A,,Clear,0,2012-11-18 20:53:00
4:53 PM,41.0,28.0,60,30.61,10.0,Calm,Calm,-,N/A,,Clear,0,2012-11-18 21:53:00
5:53 PM,37.0,28.0,70,30.61,10.0,Calm,Calm,-,N/A,,Clear,0,2012-11-18 22:53:00
6:53 PM,33.1,26.1,75,30.61,10.0,Calm,Calm,-,N/A,,Clear,0,2012-11-18 23:53:00
7:53 PM,30.9,25.0,79,30.61,10.0,Calm,Calm,-,N/A,,Clear,0,2012-11-19 00:53:00
8:53 PM,30.0,26.1,85,30.61,10.0,Calm,Calm,-,N/A,,Clear,0,2012-11-19 01:53:00
9:53 PM,28.9,25.0,85,30.60,6.0,Calm,Calm,-,N/A,,Clear,0,2012-11-19 02:53:00
10:53 PM,28.0,24.1,85,30.59,8.0,Calm,Calm,-,N/A,,Clear,0,2012-11-19 03:53:00
11:53 PM,26.1,23.0,88,30.59,9.0,Calm,Calm,-,N/A,,Clear,0,2012-11-19 04:53:00